Date String (YYYY-MM-DD hh:mm:ss) UTC,Instrument flags,absolute air pressure of the measurement (hPa),sample flow rate (lpm),inlet stack bypass flow (lpm),air temperature of the measurement (°C),ambient temperature measured by the external sensor (°C),aerosol sample conditioner tube jacket temperature (°C),OPC LED temperature (°C),internal box temperature (°C),relative humidity of the measurement (%),span deviation,mass concentration of particles derived from Lorenz-Mie calculation of OPC scattering (μg/m³),mass concentration of particles derived from Lorenz-Mie calculation of OPC scattering (μg/m³),mass concentration of particles derived from Lorenz-Mie calculation of OPC scattering (μg/m³)
DateTimeUTC,F1_M11,P_M11,Q1_M11,Q2_M11,T1_M11,T2_M11,T3_M11,T4_M11,T5_M11,U1_M11,ZSPAN_M11,X0_M11,X2_M11,X1_M11
2023-06-21 09:00:00,SystemResetWarning,0830.4,5.00,000.00,030.0,028.4,000.0,038.5,031.4,21.2,0000.0,0015.15,0006.11,0004.48
2023-06-21 09:01:00,SystemResetWarning,0830.5,5.00,000.00,030.0,028.4,000.0,038.5,031.5,21.2,0000.0,0015.28,0006.11,0004.50
2023-06-21 09:02:00,SystemResetWarning,0830.5,5.00,000.00,030.0,028.5,000.0,038.5,031.5,21.1,0000.0,0015.61,0006.16,0004.51
2023-06-21 09:03:00,SystemResetWarning,0830.5,5.00,000.00,030.0,028.5,000.0,038.6,031.5,21.1,0000.0,0015.52,0006.15,0004.54
2023-06-21 09:04:00,SystemResetWarning,0830.5,5.00,000.00,030.1,028.5,000.0,038.6,031.5,21.0,0000.0,0016.42,0006.14,0004.55
2023-06-21 09:05:00,SystemResetWarning,0830.5,5.00,000.00,030.1,028.5,000.0,038.6,031.5,21.1,0000.0,0017.01,0006.15,0004.56
2023-06-21 09:06:00,SystemResetWarning,0830.5,5.01,000.00,030.1,028.5,000.0,038.6,031.6,21.0,0000.0,0017.73,0006.21,0004.57
2023-06-21 09:07:00,SystemResetWarning,0830.5,5.00,000.00,030.1,028.5,000.0,038.6,031.6,21.1,0000.0,0018.12,0006.20,0004.58
2023-06-21 09:08:00,SystemResetWarning,0830.8,5.00,000.00,030.1,028.5,000.0,038.6,031.5,21.1,0000.0,0018.24,0006.19,0004.59
2023-06-21 09:09:00,SystemResetWarning,0830.5,5.00,000.00,030.1,028.5,000.0,038.6,031.6,21.0,0000.0,0018.75,0006.20,0004.60
2023-06-21 09:10:00,SystemResetWarning,0830.5,5.00,000.00,030.1,028.5,000.0,038.6,031.6,20.8,0000.0,0018.75,0006.15,0004.62
2023-06-21 09:11:00,SystemResetWarning,0830.5,5.00,000.00,030.1,028.5,000.0,038.7,031.5,20.5,0000.0,0018.66,0006.20,0004.65
2023-06-21 09:12:00,SystemResetWarning,0830.5,5.00,000.00,030.1,028.5,000.0,038.7,031.5,20.5,0000.0,0018.19,0006.21,0004.66
2023-06-21 09:13:00,SystemResetWarning,0831.0,5.00,000.00,030.2,028.5,000.0,038.7,031.6,20.4,0000.0,0017.77,0006.22,0004.66
2023-06-21 09:14:00,SystemResetWarning,0830.5,5.00,000.00,030.2,028.5,000.0,038.7,031.6,20.3,0000.0,0017.65,0006.19,0004.66
2023-06-21 09:15:00,SystemResetWarning,0830.6,5.00,000.00,030.2,028.5,000.0,038.7,031.6,20.2,0000.0,0016.99,0006.20,0004.65
2023-06-21 09:16:00,SystemResetWarning,0830.5,4.99,000.00,030.2,028.5,000.0,038.7,031.7,20.0,0000.0,0015.63,0006.22,0004.65
2023-06-21 09:17:00,SystemResetWarning,0830.6,5.00,000.00,030.2,028.5,000.0,038.7,031.6,19.9,0000.0,0014.91,0006.17,0004.64
2023-06-21 09:18:00,SystemResetWarning,0830.5,5.00,000.00,030.2,028.6,000.0,038.7,031.7,19.8,0000.0,0014.46,0006.13,0004.63
2023-06-21 09:19:00,SystemResetWarning,0830.5,5.00,000.00,030.2,028.6,000.0,038.7,031.7,19.8,0000.0,0014.64,0006.16,0004.62
2023-06-21 09:20:00,SystemResetWarning,0830.4,5.01,000.00,030.2,028.6,000.0,038.7,031.7,19.7,0000.0,0013.85,0006.18,0004.61
2023-06-21 09:21:00,SystemResetWarning,0830.4,5.00,000.00,030.2,028.6,000.0,038.8,031.7,19.6,0000.0,0014.37,0006.24,0004.60
2023-06-21 09:22:00,SystemResetWarning,0830.5,5.00,000.00,030.2,028.6,000.0,038.8,031.7,19.4,0000.0,0014.83,0006.22,0004.59
2023-06-21 09:23:00,SystemResetWarning,0830.5,5.00,000.00,030.3,028.6,000.0,038.8,031.7,18.8,0000.0,0015.08,0006.17,0004.58
2023-06-21 09:24:00,SystemResetWarning,0830.6,5.00,000.00,030.3,028.7,000.0,038.8,031.7,18.5,0000.0,0015.32,0006.16,0004.56
2023-06-21 09:25:00,SystemResetWarning,0830.6,5.00,000.00,030.3,028.7,000.0,038.8,031.7,18.4,0000.0,0015.42,0006.15,0004.54
2023-06-21 09:26:00,SystemResetWarning,0830.5,5.00,000.00,030.3,028.7,000.0,038.8,031.8,18.4,0000.0,0015.68,0006.07,0004.49
2023-06-21 09:27:00,SystemResetWarning,0830.5,5.00,000.00,030.3,028.7,000.0,038.8,031.8,18.3,0000.0,0015.47,0006.00,0004.45
2023-06-21 09:28:00,SystemResetWarning,0830.6,5.00,000.00,030.3,028.7,000.0,038.8,031.7,18.2,0000.0,0015.66,0005.95,0004.41
2023-06-21 09:29:00,SystemResetWarning,0830.5,5.00,000.00,030.3,028.7,000.0,038.9,031.8,18.1,0000.0,0015.81,0005.90,0004.37
2023-06-21 09:30:00,SystemResetWarning,0830.6,5.00,000.00,030.3,028.7,000.0,038.9,031.7,17.9,0000.0,0014.77,0005.79,0004.34
2023-06-21 09:31:00,SystemResetWarning,0830.5,5.01,000.00,030.3,028.7,000.0,038.9,031.8,17.7,0000.0,0014.61,0005.73,0004.31
2023-06-21 09:32:00,SystemResetWarning,0830.6,5.00,000.00,030.4,028.7,000.0,038.9,031.8,17.2,0000.0,0013.54,0005.61,0004.27
2023-06-21 09:33:00,SystemResetWarning,0830.6,4.99,000.00,030.4,027.0,000.0,038.8,031.8,16.5,0000.0,0013.67,0005.55,0004.22
2023-06-21 09:34:00,SystemResetWarning,0830.6,5.00,000.00,030.3,025.0,000.0,038.8,031.7,16.3,0000.0,0013.62,0005.48,0004.17
2023-06-21 09:35:00,SystemResetWarning,0830.6,5.00,000.00,030.2,024.7,000.0,038.7,031.4,16.4,0000.0,0013.82,0005.34,0004.10
2023-06-21 09:36:00,SystemResetWarning,0830.6,5.01,000.00,030.1,025.0,000.0,038.7,031.1,17.1,0000.0,0013.56,0005.21,0004.03
2023-06-21 09:37:00,SystemResetWarning,0830.6,5.01,000.00,030.0,025.5,000.0,038.7,031.1,17.4,0000.0,0013.74,0005.13,0004.00
2023-06-21 09:38:00,SystemResetWarning,0830.6,5.00,000.00,029.9,026.0,000.0,038.6,031.1,17.7,0000.0,0013.79,0005.09,0003.97
2023-06-21 09:39:00,SystemResetWarning,0830.6,5.01,000.00,029.9,026.4,000.0,038.6,031.1,18.0,0000.0,0013.87,0005.03,0003.95
2023-06-21 09:40:00,SystemResetWarning,0830.6,4.98,000.00,029.9,026.7,000.0,038.6,031.2,17.7,0000.0,0013.47,0004.96,0003.93
2023-06-21 09:41:00,SystemResetWarning,0830.6,5.00,000.00,029.9,027.0,000.0,038.6,031.1,17.2,0000.0,0013.76,0004.95,0003.93
2023-06-21 09:42:00,SystemResetWarning,0830.6,5.01,000.00,029.8,027.3,000.0,038.5,031.1,17.0,0000.0,0014.30,0004.92,0003.90
2023-06-21 09:43:00,SystemResetWarning,0830.6,5.01,000.00,029.8,027.4,000.0,038.5,031.1,16.7,0000.0,0014.98,0004.89,0003.88
2023-06-21 09:44:00,SystemResetWarning,0830.6,4.99,000.00,029.8,027.6,000.0,038.5,031.2,16.3,0000.0,0014.97,0004.79,0003.84
2023-06-21 09:45:00,SystemResetWarning,0830.6,5.00,000.00,029.8,027.7,000.0,038.5,031.2,16.6,0000.0,0014.79,0004.83,0003.82
2023-06-21 09:46:00,SystemResetWarning,0830.6,5.00,000.00,029.8,027.8,000.0,038.5,031.2,16.7,0000.0,0014.54,0004.84,0003.82
2023-06-21 09:47:00,SystemResetWarning,0830.6,5.00,000.00,029.9,027.9,000.0,038.5,031.2,17.0,0000.0,0015.22,0004.88,0003.82
2023-06-21 09:48:00,SystemResetWarning,0830.6,5.00,000.00,029.9,028.0,000.0,038.5,031.3,16.9,0000.0,0014.63,0004.94,0003.82
2023-06-21 09:49:00,SystemResetWarning,0830.6,5.00,000.00,029.9,028.1,000.0,038.5,031.3,17.0,0000.0,0014.68,0004.99,0003.82
2023-06-21 09:50:00,SystemResetWarning,0830.6,5.01,000.00,029.9,028.1,000.0,038.5,031.3,16.5,0000.0,0014.19,0005.04,0003.82
2023-06-21 09:51:00,SystemResetWarning,0830.6,5.00,000.00,029.9,028.1,000.0,038.5,031.3,16.2,0000.0,0013.90,0005.06,0003.81
2023-06-21 09:52:00,SystemResetWarning,0830.6,4.99,000.00,029.9,028.2,000.0,038.5,031.3,16.2,0000.0,0013.61,0005.02,0003.78
2023-06-21 09:53:00,SystemResetWarning,0830.6,4.99,000.00,029.9,028.2,000.0,038.5,031.4,16.2,0000.0,0013.90,0004.99,0003.75
2023-06-21 09:54:00,SystemResetWarning,0830.6,5.00,000.00,029.9,028.3,000.0,038.5,031.4,16.3,0000.0,0013.43,0004.96,0003.74
2023-06-21 09:55:00,SystemResetWarning,0830.6,5.01,000.00,030.0,028.3,000.0,038.5,031.4,16.6,0000.0,0012.79,0005.00,0003.74
2023-06-21 09:56:00,SystemResetWarning,0830.6,5.02,000.00,030.0,028.3,000.0,038.5,031.4,16.0,0000.0,0012.94,0004.93,0003.72
2023-06-21 09:57:00,SystemResetWarning,0830.6,5.00,000.00,030.0,028.3,000.0,038.5,031.5,15.7,0000.0,0013.27,0004.95,0003.73
2023-06-21 09:58:00,SystemResetWarning,0830.6,5.00,000.00,030.0,028.4,000.0,038.5,031.5,15.8,0000.0,0012.89,0004.90,0003.72
2023-06-21 09:59:00,SystemResetWarning,0830.6,4.99,000.00,030.0,028.4,000.0,038.6,031.4,15.8,0000.0,0013.01,0004.84,0003.70
